Wind_Speed
43 41 39 36 35 33 32 32 32 33 34 36 37 38 40 41 42 42 41 42 42 43 43 43 43 43 43 44 46 47 48 49 51 52 54 56 58 59 60 60 60 58 57 56 57 58 59 59 60 60 61 61 62 63 64 65 66 67 69 70 71 72 73 74 75 76 77 77 77 77 77 77 77 78 80 79 77 79 80 79 79 79 80 81 82 82 83 84
42 41 39 37 35 33 32 32 32 33 35 36 38 39 40 41 41 41 41 42 42 42 42 42 42 43 44 45 47 48 50 51 53 55 57 58 59 60 60 60 58 57 57 58 59 60 60 61 61 62 63 64 65 67 68 69 69 70 71 71 71 71 72 72 72 72 72 72 71 70 68 67 68 69 70 68 66 67 68 67 67 68 69 70 71 71 72 73
41 39 38 36 34 33 32 32 32 33 35 36 37 38 39 40 40 40 40 41 41 41 42 42 43 44 45 46 48 50 52 54 56 57 58 59 59 59 59 58 57 58 59 60 61 62 63 63 64 65 66 67 68 69 69 69 68 68 67 66 66 65 65 64 63 63 62 62 61 59 57 56 58 60 60 59 58 58 60 60 59 59 60 61 63 64 64 65
39 38 36 35 33 33 32 32 33 34 35 36 37 38 39 39 38 39 39 40 40 41 42 43 44 45 46 48 50 52 54 56 57 58 58 59 58 58 57 57 58 60 61 62 63 64 65 66 67 68 68 68 68 66 65 63 61 60 59 58 57 56 56 56 55 54 54 54 54 53 52 51 53 55 55 56 56 56 57 58 59 58 58 59 60 61 61 62
38 36 35 34 34 33 32 32 33 34 35 35 36 37 37 36 36 37 37 38 40 41 43 44 45 46 48 51 53 55 56 57 58 57 58 57 56 56 57 59 61 62 63 64 65 66 67 68 68 67 66 64 61 59 56 55 53 52 52 51 50 49 50 50 50 50 51 51 52 52 51 52 53 54 56 57 58 58 59 60 62 62 62 62 62 63 63 64
36 36 35 34 33 33 33 33 33 33 34 34 34 34 34 34 35 36 37 39 40 42 44 45 47 49 51 53 55 56 57 57 56 56 55 55 56 58 60 61 62 64 65 66 67 68 67 65 63 60 57 54 52 50 48 47 46 46 47 47 47 47 48 48 49 50 51 52 53 54 54 55 56 57 59 60 61 63 64 64 65 66 67 67 68 68 68 69
35 34 33 33 33 32 32 31 31 31 31 31 31 32 32 33 35 37 39 40 42 44 46 48 49 51 53 55 55 55 55 54 54 53 55 56 58 60 61 63 64 66 67 67 65 62 59 55 52 50 48 46 45 44 44 44 44 45 46 47 48 49 50 51 52 53 55 56 57 58 59 59 61 61 63 64 65 67 68 69 70 71 71 72 73 73 73 74
34 33 32 32 31 31 30 29 29 29 29 30 31 32 34 35 37 39 40 42 44 46 48 50 51 53 53 53 53 52 51 52 53 55 57 59 60 62 63 65 66 65 63 59 55 51 48 45 44 43 42 43 43 43 44 45 46 47 49 50 52 53 54 55 56 57 59 60 62 63 63 64 66 67 67 69 70 71 72 73 74 75 76 76 77 78 78 79
33 32 31 31 30 29 28 28 28 29 29 31 33 34 36 38 39 41 43 44 46 48 50 51 51 50 50 49 49 49 51 53 55 57 59 60 62 64 64 63 61 56 52 47 44 42 41 41 41 41 42 43 44 45 47 48 50 51 52 54 56 58 59 60 61 62 63 65 66 67 67 68 70 72 73 74 75 75 76 77 78 79 80 81 82 82 83 83
32 31 30 29 29 28 28 29 29 30 32 33 35 37 38 40 41 43 45 47 48 48 48 47 47 46 47 48 50 51 54 56 57 59 60 62 62 60 57 53 49 45 42 40 39 39 40 41 42 44 45 46 48 49 51 53 54 55 57 58 60 62 63 65 66 66 67 69 70 71 72 72 75 77 77 78 80 80 81 82 83 84 84 85 86 87 88 88
31 30 29 29 29 29 30 30 31 32 34 35 36 38 40 42 44 45 46 46 45 44 43 43 44 46 48 50 52 54 56 57 59 60 59 57 53 49 45 42 39 38 38 38 39 40 42 44 45 47 49 51 52 54 56 57 58 60 61 62 64 65 67 68 70 71 72 72 73 74 75 76 79 81 81 82 83 84 85 86 87 88 88 89 90 91 92 92
29 29 29 30 30 31 32 33 33 35 36 37 38 40 42 44 44 44 43 42 41 41 42 44 46 48 50 52 54 56 57 57 56 53 49 44 40 38 36 36 37 37 39 40 42 44 46 48 49 51 52 54 56 57 59 61 62 63 64 65 66 68 70 71 73 74 75 76 77 78 77 78 81 83 84 86 87 88 88 89 90 91 91 92 92 93 94 95
29 29 30 30 31 32 33 34 35 36 37 39 41 42 43 42 41 39 39 39 40 42 44 46 48 50 52 54 54 54 52 48 44 40 37 35 34 34 35 36 38 40 42 44 46 48 49 51 53 54 56 57 58 60 61 63 64 66 67 68 69 70 72 73 75 76 78 78 79 80 80 79 81 84 86 87 88 89 90 91 91 92 92 93 94 94 95 96
28 29 29 30 31 33 34 35 36 38 39 40 41 40 39 38 37 38 39 41 43 45 46 48 50 51 51 50 47 44 40 37 34 33 32 33 34 36 37 39 41 43 45 47 49 51 52 54 55 56 58 59 60 62 63 65 66 68 70 71 72 73 73 74 75 77 78 79 80 80 80 79 80 82 84 86 87 88 89 90 91 91 92 93 93 94 94 95
27 28 30 31 32 33 35 36 37 38 38 38 37 36 36 36 38 39 41 43 45 46 48 48 48 46 43 39 36 33 32 31 31 32 33 35 37 39 41 43 45 46 48 49 51 52 54 55 56 58 59 61 62 64 65 67 68 69 71 72 73 74 74 75 75 76 76 78 79 80 81 80 80 82 83 84 86 87 88 89 89 90 91 92 93 93 94 94
28 29 30 31 32 33 33 34 34 35 34 34 34 35 36 38 40 41 43 44 45 45 44 41 37 34 31 29 29 29 30 31 32 34 36 38 40 42 44 45 47 48 50 51 53 54 55 57 58 59 61 62 64 65 66 67 68 69 69 71 72 72 73 74 75 76 76 77 78 80 81 82 82 83 84 86 86 87 87 88 89 90 91 92 93 93 93 94
27 28 28 28 29 29 30 30 31 31 32 33 35 36 38 39 41 42 42 41 39 36 32 29 27 26 25 27 28 29 31 33 35 37 39 41 42 44 45 47 48 50 51 53 54 56 57 58 59 60 61 62 63 64 65 66 67 68 68 69 71 72 72 73 74 75 76 77 78 80 82 84 86 87 89 90 90 90 90 91 91 92 93 93 93 94 95 96
24 24 24 25 26 27 28 29 30 32 33 35 36 38 39 39 39 37 34 31 27 25 23 23 23 24 26 28 30 32 34 36 38 40 41 42 43 45 46 48 50 51 53 55 56 57 58 58 59 59 59 60 61 62 64 64 65 66 67 68 69 72 73 74 75 76 77 80 81 83 85 87 89 91 93 94 95 95 95 95 96 96 96 96 96 97 98 99
22 22 23 24 26 27 29 30 31 33 34 35 36 36 35 32 29 26 23 22 21 21 21 23 25 27 29 31 33 35 36 38 40 41 42 43 45 46 48 49 51 52 54 55 56 56 56 56 56 57 57 58 59 60 62 63 64 65 66 68 70 72 75 77 78 78 79 81 83 84 86 88 89 91 93 94 95 95 96 96 96 97 97 97 98 99 100 101
22 23 24 26 27 28 29 31 32 32 32 31 29 27 24 21 19 18 18 19 20 21 23 25 27 29 31 33 35 36 38 39 40 42 43 45 47 48 49 51 51 52 53 53 53 53 53 54 54 54 55 56 57 59 61 63 65 66 68 70 72 74 76 78 79 80 79 80 81 82 83 86 88 90 91 92 94 94 94 94 95 95 96 97 98 99 100 101
23 24 25 26 27 28 29 28 28 26 24 21 18 16 15 15 15 16 18 20 22 24 26 27 29 31 33 34 36 37 39 40 42 44 45 47 48 48 49 49 49 49 50 50 50 50 51 51 52 53 55 56 58 61 63 65 66 68 69 71 72 73 75 76 77 77 77 77 78 78 79 82 85 87 90 91 93 93 93 94 94 94 95 97 98 99 100 101
23 24 24 24 24 23 22 20 18 16 14 13 12 12 13 14 16 18 20 22 24 25 27 29 30 32 33 35 37 38 40 42 43 44 45 45 46 46 45 46 46 47 47 47 48 49 51 52 54 55 57 59 60 62 64 65 66 67 68 68 69 70 71 71 72 74 75 76 77 76 76 80 83 86 89 92 94 94 94 95 95 96 97 98 99 100 100 101
20 20 19 17 16 14 13 11 10 9 9 10 11 12 14 16 18 20 22 24 25 26 28 29 31 32 34 36 38 40 41 42 42 42 42 42 42 43 43 44 45 46 47 48 50 51 53 54 55 57 58 59 60 61 61 62 63 63 64 64 65 67 68 69 69 72 74 76 78 77 76 80 83 85 89 92 94 94 95 96 96 98 100 101 101 102 102 103
15 14 12 11 11 9 8 7 7 7 8 10 12 14 16 18 20 21 23 24 25 26 27 29 31 33 35 37 38 39 40 40 40 40 40 40 41 42 43 44 45 47 49 50 52 53 53 54 54 54 55 55 56 57 57 58 59 60 61 63 64 66 69 70 71 72 75 77 80 81 78 79 83 85 87 90 92 93 94 95 95 97 99 101 102 102 104 105
13 12 11 10 8 7 6 5 6 8 9 12 14 16 18 20 21 22 23 24 25 26 28 30 33 34 36 37 37 37 37 37 37 38 39 40 41 43 45 46 48 49 50 50 51 51 51 52 52 52 53 53 54 54 55 56 58 59 61 63 65 67 69 72 74 74 76 78 81 82 81 79 80 85 86 87 90 92 93 93 94 96 97 99 101 102 104 105
12 11 9 7 5 4 4 5 7 9 11 14 15 17 19 20 21 22 23 24 26 28 30 32 33 34 34 34 34 34 34 35 36 37 39 40 42 44 45 47 48 48 48 49 49 50 50 51 51 52 52 53 53 54 55 56 58 60 62 64 67 69 71 73 75 76 77 79 82 83 84 81 80 85 87 87 90 91 91 92 93 94 96 97 99 101 103 104
9 7 5 3 2 3 5 7 9 11 13 15 16 17 19 20 21 22 23 25 27 29 30 31 31 31 31 31 31 32 33 34 36 38 39 41 42 43 44 45 46 46 46 47 48 49 50 51 52 52 52 53 53 54 56 57 59 61 63 65 68 70 73 74 76 77 78 80 84 86 87 82 78 85 89 88 90 91 90 91 91 92 94 95 97 99 100 102
6 4 2 1 3 5 7 9 11 12 14 15 16 17 19 20 22 24 25 26 27 28 28 28 28 28 29 30 31 32 34 35 37 38 39 40 40 41 42 44 45 46 47 47 48 50 50 51 52 53 54 54 55 55 57 59 60 62 64 67 70 72 74 76 77 78 79 81 85 88 91 87 80 83 90 89 89 90 89 89 89 90 91 92 94 95 96 98
3 1 1 3 5 6 8 10 11 12 14 15 16 18 20 22 23 24 24 24 25 25 25 26 26 27 28 29 30 32 33 34 35 37 38 39 40 41 42 43 44 46 47 48 49 50 51 52 53 54 54 55 56 57 59 61 62 65 67 69 72 74 76 78 77 78 78 79 83 86 89 90 85 83 88 89 89 89 88 86 86 87 89 90 91 93 94 95
1 1 3 5 6 7 8 10 11 13 15 17 19 21 22 22 22 22 22 22 22 22 23 23 24 25 26 28 30 31 33 34 34 35 37 39 41 42 44 45 46 47 49 50 51 52 53 53 54 56 56 57 59 61 64 66 68 69 71 71 73 75 76 78 78 77 76 76 80 84 85 88 89 85 84 85 87 89 88 88 88 89 90 91 92 94 95 94
3 3 5 6 7 8 9 11 13 15 17 19 20 21 20 20 19 19 20 20 20 21 21 22 23 25 27 29 30 32 33 34 36 38 40 43 46 48 49 51 51 52 53 54 55 55 56 57 58 60 61 62 64 66 68 69 71 72 73 73 73 73 75 77 78 77 76 76 79 82 82 84 88 89 85 83 85 88 89 90 90 91 91 90 91 94 94 92
4 4 5 7 8 10 12 14 15 17 18 19 19 19 18 17 18 18 19 19 19 19 21 22 24 26 28 29 31 32 34 36 39 42 45 48 50 51 52 53 54 55 56 57 58 59 60 60 61 63 64 66 67 68 69 70 72 74 75 76 76 75 73 74 75 75 73 74 78 83 83 83 86 87 86 84 84 84 85 87 88 89 88 87 89 91 89 88
5 6 7 9 11 12 14 15 17 18 18 18 17 16 16 17 18 17 17 17 18 20 22 25 26 28 29 30 32 34 37 40 43 46 48 49 50 52 53 55 56 57 58 60 61 62 63 63 64 65 66 67 69 70 72 73 75 77 79 80 81 80 78 76 76 75 71 70 76 83 85 87 89 86 83 84 85 83 82 85 86 86 85 85 87 87 84 84
7 9 10 12 13 14 16 17 17 17 16 16 15 15 16 17 16 16 16 18 20 22 24 25 27 28 30 32 34 37 41 44 46 49 50 52 53 55 57 58 59 60 61 63 64 66 67 67 68 69 70 71 73 75 77 79 80 81 83 85 86 86 85 83 82 81 77 74 77 80 83 90 95 90 84 86 86 83 82 84 84 82 82 84 84 83 82 82
10 11 12 14 15 16 17 17 16 14 14 14 15 16 16 15 15 16 18 20 21 22 23 24 27 29 32 35 38 41 44 47 49 51 53 55 56 58 60 61 62 63 64 66 67 69 71 72 72 72 74 75 77 79 81 82 84 85 87 88 89 89 89 87 86 86 85 81 79 80 82 89 97 93 87 87 84 82 83 84 83 82 83 83 81 79 79 80
12 13 14 16 17 17 17 16 13 13 14 14 15 16 15 14 16 18 20 21 22 22 24 27 30 33 36 39 42 44 47 49 51 54 56 58 59 61 63 65 66 67 68 68 69 70 72 75 76 76 77 79 80 81 83 85 87 87 89 90 91 91 91 90 86 84 83 81 80 82 83 88 94 91 87 88 85 84 86 86 85 83 82 80 77 75 78 79
14 15 16 17 17 16 15 13 12 14 14 14 15 15 15 16 18 19 20 22 23 25 27 31 34 37 40 43 45 47 50 52 55 57 59 61 63 65 67 68 70 70 71 71 72 73 73 75 78 79 79 81 82 83 84 86 88 88 89 91 92 92 91 92 91 85 82 80 80 82 86 92 96 92 87 87 89 91 90 88 86 83 80 77 74 73 75 77
16 17 17 17 16 15 13 13 13 14 14 14 16 16 17 19 19 20 22 24 26 29 31 34 38 40 44 46 49 52 54 56 59 61 63 65 67 68 70 71 72 73 74 74 74 75 75 76 78 80 81 82 84 85 86 87 88 89 90 91 92 93 92 93 95 93 88 84 81 78 83 95 99 94 89 89 90 93 92 87 83 80 76 75 74 73 72 72
17 17 17 16 15 15 14 13 14 15 16 17 17 18 19 20 21 24 26 27 30 33 35 38 41 44 47 49 52 54 57 59 61 63 65 67 69 71 72 73 74 74 75 76 76 77 78 78 79 82 84 85 85 86 88 90 91 91 92 92 92 94 94 93 95 96 93 89 84 76 78 92 101 96 92 91 91 92 91 84 80 76 73 72 74 74 71 68
18 17 17 16 16 15 13 13 16 18 18 18 18 19 21 22 24 27 28 31 33 36 39 42 44 46 49 51 53 55 58 60 62 65 67 69 70 72 73 74 75 76 77 78 78 79 80 80 81 82 84 86 88 88 90 92 92 91 92 94 93 93 94 93 94 96 97 95 91 82 78 89 101 99 95 94 93 92 90 83 77 73 70 70 72 72 70 66
17 16 16 16 16 14 12 15 19 19 17 18 19 21 23 25 27 29 31 34 37 39 42 44 46 48 50 52 54 56 58 61 63 66 68 70 71 73 74 75 76 77 78 79 80 81 82 83 83 84 85 86 88 89 89 91 91 91 91 93 94 93 94 94 93 93 95 97 96 88 83 89 100 102 99 98 95 91 87 81 75 72 71 70 70 70 69 65
16 16 15 16 16 14 14 18 19 18 18 20 21 23 26 28 30 32 34 37 39 42 44 46 48 50 52 53 55 56 59 62 64 67 69 70 72 73 75 76 77 79 80 81 82 83 84 85 85 86 87 88 89 89 89 90 91 92 91 92 93 94 95 97 96 94 93 96 95 87 81 87 97 101 100 97 93 89 84 79 75 72 71 71 68 67 67 64
16 15 15 15 15 16 19 20 19 18 20 21 24 26 28 29 31 33 36 39 42 44 46 48 50 51 52 53 55 57 60 63 65 67 69 71 73 74 76 77 78 80 81 82 84 85 86 87 88 88 88 89 89 89 88 89 90 93 94 94 95 96 96 97 98 97 94 96 98 89 80 84 93 96 95 93 89 86 82 77 74 72 71 70 68 66 64 62
15 15 15 16 17 19 19 19 18 20 22 24 27 28 29 30 32 35 38 41 44 46 47 49 50 51 53 54 56 59 61 63 65 68 70 72 74 75 77 79 80 82 83 84 85 86 88 90 92 92 91 91 92 92 91 91 92 94 96 96 96 97 97 96 97 96 93 94 100 97 85 82 88 91 92 92 88 84 80 75 72 72 71 69 67 65 62 60
15 15 16 17 18 19 18 18 19 21 24 26 28 29 30 32 34 38 41 43 45 47 48 50 51 52 53 55 58 60 62 64 66 69 71 73 75 77 79 80 82 83 84 85 86 88 89 91 94 97 98 98 100 99 98 97 96 96 97 97 97 97 97 98 97 95 92 91 95 100 93 83 82 85 87 90 88 84 78 73 70 71 70 67 65 63 60 57
15 16 17 18 18 18 18 19 21 23 26 28 28 30 32 34 37 40 43 45 46 48 49 50 52 53 55 57 59 61 63 65 68 70 73 75 77 79 80 82 83 84 85 86 87 88 90 91 94 97 99 101 102 102 100 99 97 96 96 96 97 98 97 98 98 96 93 89 87 93 97 90 84 84 87 89 87 81 74 69 67 68 67 65 64 62 60 57
15 17 17 18 18 18 19 21 23 24 27 28 30 31 34 37 40 42 44 46 47 49 50 51 53 54 56 58 60 62 65 67 70 72 75 77 78 80 81 83 84 85 86 87 88 89 90 91 92 95 98 99 100 100 98 97 97 96 97 96 97 97 95 96 98 97 95 91 84 83 90 91 86 85 88 90 86 77 69 66 66 66 65 64 62 61 59 57
16 17 17 17 18 18 20 21 23 26 28 29 31 33 36 39 41 42 44 46 48 49 51 53 54 55 57 59 61 64 67 70 72 74 76 78 79 81 83 84 85 86 87 88 89 89 90 91 92 93 96 97 98 98 96 96 97 98 98 98 97 96 95 95 98 98 97 96 92 87 88 91 89 85 85 86 84 76 68 65 66 66 66 64 62 60 59 56
16 17 16 17 18 19 20 22 25 27 29 30 32 35 37 39 41 43 45 47 49 51 53 54 55 56 58 61 64 67 69 72 74 76 77 79 81 82 84 85 86 87 88 89 90 90 91 92 92 93 95 96 97 97 97 97 98 98 98 97 96 96 97 97 97 96 95 96 98 95 92 93 92 87 83 82 81 75 70 66 65 64 64 63 60 59 57 54
15 16 16 17 17 19 21 23 26 28 29 31 34 36 38 40 42 44 47 49 52 53 54 55 55 57 59 62 66 69 71 73 75 77 79 81 82 84 86 87 88 89 89 90 91 92 92 93 93 93 94 95 96 97 98 98 98 98 97 96 96 96 96 97 97 95 92 91 93 95 94 92 89 86 82 81 79 73 68 66 63 61 61 61 58 56 54 52
15 15 15 16 17 19 22 24 26 28 30 32 35 37 39 41 44 47 49 52 53 54 55 56 57 58 61 64 67 70 72 74 77 79 81 83 85 86 88 89 90 90 91 91 92 93 93 93 94 93 94 96 97 98 98 98 98 99 98 98 97 96 95 97 100 99 96 92 90 90 90 87 82 80 79 79 79 73 68 65 61 58 59 59 58 56 54 51
14 14 15 16 18 20 23 26 27 29 31 33 36 38 41 44 47 49 51 52 53 54 56 57 58 59 62 64 67 69 72 76 79 81 83 85 87 88 90 90 91 91 92 92 93 94 94 94 95 95 95 97 98 99 100 100 99 100 101 100 100 98 97 98 99 99 99 98 95 91 88 83 79 77 75 75 77 74 68 64 61 57 56 57 57 55 54 51
Wind_Direction
207 211 215 218 221 224 229 234 237 238 240 242 244 247 249 251 252 254 255 255 256 259 262 266 269 273 276 279 282 285 288 290 292 293 294 295 296 296 296 296 295 294 292 291 290 290 289 288 288 287 286 286 285 284 283 283 282 281 280 280 279 279 278 277 276 275 275 275 274 274 274 274 273 272 271 271 271 270 269 268 268 267 267 267 266 266 265 265
205 209 213 216 220 223 228 232 235 236 238 240 242 244 246 247 249 252 254 256 259 262 266 270 273 276 279 283 286 289 291 292 293 293 294 294 294 294 295 294 293 292 291 290 290 289 288 287 286 286 285 285 285 284 283 283 282 281 280 279 279 278 277 276 275 275 274 274 274 273 273 273 272 271 271 271 270 270 269 268 267 267 266 265 265 265 265 264
204 207 211 214 218 222 226 229 230 232 234 236 239 241 243 246 250 254 257 260 263 267 270 273 277 280 284 287 290 291 292 292 292 292 293 293 293 293 292 291 290 289 289 289 289 288 288 287 286 286 285 285 284 284 283 282 281 280 279 278 277 276 275 275 274 274 273 273 272 272 272 271 271 271 271 271 270 270 270 269 267 266 265 265 265 265 265 265
202 205 209 212 216 220 224 227 229 231 234 237 240 242 246 250 254 259 262 266 269 272 275 279 282 285 288 290 291 291 291 291 291 291 292 292 292 291 289 288 288 288 288 288 288 288 288 287 287 286 286 285 284 283 282 281 280 279 278 277 276 275 274 274 273 273 273 272 272 272 272 271 271 272 273 273 273 272 272 271 270 268 267 266 265 265 265 265
201 204 208 212 216 220 224 227 230 233 236 239 243 247 251 255 260 265 269 273 276 279 281 284 286 288 289 290 290 290 290 290 291 291 291 290 289 287 287 287 288 288 288 288 288 288 288 287 287 286 285 284 283 282 281 280 279 278 277 276 276 275 274 274 274 274 275 274 275 275 274 274 274 275 276 276 276 275 275 274 274 273 272 270 269 267 267 266
201 205 208 213 217 221 224 228 232 236 240 244 248 253 258 263 268 273 277 280 282 284 285 286 288 288 288 288 289 289 289 290 290 289 288 287 286 286 287 287 288 288 288 288 288 288 287 287 286 285 285 284 282 281 281 280 279 278 277 277 277 276 276 277 277 277 278 278 278 278 278 278 278 278 278 278 278 278 277 277 277 277 276 275 274 273 271 270
203 207 211 215 219 223 227 231 236 241 246 251 257 263 267 272 277 280 282 283 284 285 286 287 287 287 288 288 288 288 288 287 287 286 285 285 286 287 287 287 288 288 288 288 288 288 287 286 285 284 283 282 281 281 280 280 279 279 279 279 280 280 280 280 280 281 281 281 281 281 281 281 280 279 279 279 279 279 279 278 278 278 277 277 276 276 275 274
206 211 215 219 223 228 232 237 243 248 254 260 266 271 274 277 280 281 282 283 284 285 286 286 286 286 287 287 286 286 285 285 284 284 285 286 287 287 288 288 288 288 288 288 287 286 285 284 283 282 282 281 282 282 282 282 282 283 283 284 284 284 284 284 284 284 284 284 283 283 283 283 282 281 280 280 279 279 279 278 278 277 277 276 276 275 275 275
210 214 219 224 229 234 239 245 251 257 262 267 271 274 276 277 279 280 281 283 284 284 285 285 285 285 285 284 284 284 284 284 285 285 286 287 287 288 288 288 288 288 287 286 285 284 283 283 283 283 283 284 284 285 285 285 286 286 286 286 286 287 287 286 286 286 286 285 285 285 284 284 283 282 281 281 280 279 278 277 277 276 276 276 275 275 274 274
213 218 223 229 234 240 246 251 257 262 266 269 271 273 275 277 279 281 282 283 283 283 282 283 283 283 283 283 283 284 284 284 285 286 287 287 288 288 288 287 287 286 285 285 285 285 285 285 285 286 287 287 288 288 288 288 288 289 289 289 289 289 289 288 288 287 286 285 285 284 284 283 282 282 281 281 280 279 278 277 277 276 276 275 275 275 274 273
216 222 227 233 239 245 250 255 259 263 266 268 271 273 276 278 280 281 281 281 280 280 280 281 281 281 282 282 283 283 284 285 286 287 288 288 287 287 286 286 286 286 286 286 287 288 289 289 289 290 291 291 291 291 291 291 291 291 290 290 290 289 289 288 287 287 286 285 284 284 283 283 282 282 281 280 280 279 278 278 277 277 276 276 275 275 275 274
220 226 231 237 242 247 252 256 259 263 266 269 272 274 277 278 279 279 278 278 278 279 279 279 279 280 281 282 283 284 286 286 287 287 286 286 286 286 286 286 286 287 288 289 290 291 292 292 293 293 293 293 293 292 292 292 291 291 290 289 289 288 288 287 287 286 286 285 285 284 284 283 282 283 282 281 281 280 279 278 278 277 276 276 275 275 275 274
223 229 234 239 244 249 253 256 260 263 267 270 273 275 276 276 275 275 276 276 277 277 277 278 279 280 282 283 285 286 286 286 285 285 285 285 286 286 286 287 288 290 291 292 293 294 295 295 295 294 294 293 292 292 291 291 290 290 289 288 288 287 287 287 286 286 286 286 285 285 285 284 283 283 283 282 282 281 280 280 279 278 278 277 276 276 275 274
227 232 238 242 246 250 254 257 261 265 268 270 272 272 272 272 272 273 274 275 275 276 277 279 281 282 284 284 285 285 284 283 283 283 284 285 287 288 290 291 292 293 294 295 296 296 296 295 294 293 292 292 291 291 291 290 290 290 290 290 290 289 289 288 288 288 288 288 287 287 287 286 285 284 284 283 283 282 282 281 281 280 280 279 278 277 276 275
231 236 240 244 248 251 255 259 262 265 266 267 268 268 268 270 271 272 273 274 275 277 279 281 282 283 284 284 283 283 282 283 284 286 287 289 291 293 294 295 296 297 297 296 295 294 293 292 292 292 292 292 292 293 293 293 293 293 293 293 293 293 292 292 291 291 291 291 292 292 291 290 289 288 287 286 285 285 284 284 283 283 282 281 280 279 278 277
232 237 241 245 249 253 256 259 260 261 262 263 264 266 267 269 270 272 274 276 278 280 281 282 282 282 282 281 282 282 284 286 288 290 292 294 296 297 298 297 297 295 294 293 292 292 292 292 293 293 294 294 295 295 295 295 295 295 295 295 295 295 295 296 296 295 295 295 295 295 295 294 293 292 291 290 289 288 287 286 286 285 284 283 282 282 281 280
231 236 240 245 248 250 252 254 255 257 259 261 263 265 267 270 272 274 276 278 279 280 280 279 279 279 280 282 283 286 288 290 292 295 296 298 298 297 296 295 293 292 292 292 293 294 295 296 297 297 298 298 298 298 298 298 298 298 298 298 299 299 298 298 298 298 298 298 298 298 297 297 296 295 294 293 292 291 290 290 289 288 287 286 286 285 284 283
228 233 237 240 243 246 248 251 254 257 259 262 265 267 270 272 274 275 276 276 276 276 276 276 278 280 282 285 289 292 295 296 297 298 297 297 295 294 293 293 293 294 295 296 297 298 299 300 300 301 301 301 300 300 300 300 300 300 301 301 301 301 301 300 300 300 300 300 300 299 298 297 295 294 293 293 292 292 291 291 290 289 289 288 288 287 285 284
226 230 234 238 242 246 249 252 255 259 262 265 267 269 271 271 272 272 272 272 271 272 275 278 282 286 289 293 296 298 298 297 296 295 294 294 294 294 295 295 296 298 299 300 301 302 302 302 302 302 302 302 302 302 302 303 303 303 303 303 303 302 302 301 301 302 301 300 298 297 296 294 293 292 291 291 290 290 290 290 289 289 289 288 287 286 285 285
227 232 236 240 244 248 252 255 259 262 264 265 266 267 267 266 266 266 268 270 273 276 281 285 289 294 297 298 298 297 296 295 295 295 295 296 298 299 300 301 302 303 303 303 303 304 304 304 304 304 305 305 305 305 305 306 306 305 305 305 304 303 302 301 301 301 300 298 296 295 295 294 294 293 292 292 291 291 291 291 290 290 289 288 287 287 286 285
231 236 240 245 248 252 255 258 259 259 259 258 258 258 259 261 263 267 272 276 280 285 290 294 297 298 298 296 295 295 296 296 297 298 299 301 302 303 304 304 305 305 304 304 304 305 305 306 307 308 309 309 309 309 308 307 307 306 306 305 304 303 302 302 302 301 300 299 298 298 297 297 296 295 295 294 293 293 293 293 292 291 290 289 288 287 287 286
238 242 245 248 249 251 251 250 248 247 247 249 251 255 261 265 270 274 281 286 290 294 297 298 297 296 295 295 295 296 297 299 301 302 304 305 306 306 306 305 305 306 306 307 309 310 312 313 314 314 313 312 311 310 309 308 307 307 307 306 305 305 304 304 304 303 302 301 300 300 300 298 297 296 296 294 294 295 295 294 293 293 291 291 290 289 289 288
238 238 237 236 234 231 229 228 229 233 242 252 259 265 270 275 280 286 291 295 297 298 297 296 295 295 296 296 298 300 301 303 305 307 307 307 307 306 307 308 311 312 314 316 317 318 318 317 316 315 313 312 311 310 310 309 309 309 309 309 308 308 307 307 306 305 305 304 303 303 302 300 298 297 295 294 294 294 293 293 293 292 291 291 290 290 290 289
213 210 206 202 200 200 204 213 226 241 254 264 273 279 285 290 294 296 296 296 296 295 295 296 297 299 300 301 302 304 306 308 309 309 309 310 311 313 315 318 320 321 322 322 321 319 318 317 315 314 313 312 312 311 312 312 312 312 312 312 311 311 310 309 309 308 307 306 304 303 303 301 298 296 294 293 293 293 292 292 292 291 291 291 290 290 289 288
177 175 175 177 180 189 204 229 252 266 276 283 289 294 297 297 297 295 295 295 296 297 299 300 301 303 304 305 308 310 312 313 313 314 316 319 321 323 325 325 325 325 323 321 319 317 316 316 315 314 314 313 313 314 314 314 315 315 315 314 314 313 312 311 310 309 308 306 304 303 302 301 300 298 296 296 295 294 294 293 293 292 291 291 290 289 288 287
158 159 163 169 182 211 244 269 282 288 292 295 298 298 297 296 295 295 297 299 301 302 304 304 305 307 309 312 314 315 317 318 321 324 327 328 328 328 327 326 325 323 321 319 318 317 317 316 316 316 315 315 316 317 317 318 318 318 318 317 315 314 313 312 311 310 309 307 305 304 303 303 304 302 300 299 297 296 296 295 294 293 292 291 290 289 288 287
148 151 157 174 225 268 282 290 295 297 298 299 297 295 295 295 297 300 303 304 304 304 305 307 310 313 316 318 320 322 325 329 331 332 332 332 331 329 327 324 322 321 321 321 320 320 320 320 320 320 320 320 321 322 322 321 321 320 319 318 316 315 314 313 313 312 312 310 308 306 305 306 307 304 302 301 300 299 299 297 296 295 293 292 290 289 288 287
138 141 158 248 289 295 296 299 301 300 299 297 295 297 300 303 306 307 307 305 304 307 311 315 319 322 324 326 329 333 335 337 337 335 334 333 331 329 326 325 325 325 325 325 324 324 325 325 325 325 325 326 326 325 324 323 322 321 320 319 318 317 316 315 315 314 314 312 308 307 307 308 309 306 303 303 302 301 300 298 297 295 293 291 289 288 287 286
123 121 300 304 306 305 304 303 300 299 299 301 304 308 311 312 311 309 308 309 313 319 324 327 329 331 333 336 338 339 339 340 340 337 335 333 332 331 331 331 332 331 330 330 330 331 331 331 330 330 330 330 329 328 326 325 324 323 322 322 320 319 318 316 316 315 314 312 308 306 307 309 310 308 305 305 304 302 301 299 297 295 294 293 292 292 290 289
74 348 324 318 315 312 307 305 305 308 312 314 317 317 316 314 312 314 318 323 328 331 332 334 336 339 341 342 342 343 342 342 341 338 337 337 338 339 340 340 339 339 338 338 338 337 337 336 335 334 334 333 332 331 329 328 326 325 324 323 321 320 319 317 316 315 315 313 309 307 309 310 309 308 307 306 306 305 304 303 301 300 299 298 297 296 294 293
7 346 332 323 317 314 316 319 321 321 321 321 321 319 317 317 323 330 335 336 337 338 339 342 344 345 346 346 346 346 345 345 345 345 346 347 348 349 349 347 347 346 344 344 344 342 341 340 339 338 337 336 334 332 330 329 327 325 325 324 323 322 321 319 318 317 317 315 311 309 311 311 310 309 309 309 308 307 306 305 304 302 301 300 300 297 296 296
3 346 336 332 329 330 332 329 326 324 325 325 323 322 326 335 344 346 344 343 344 345 347 349 351 352 352 351 350 350 350 351 354 355 355 356 355 353 352 351 350 349 347 346 346 345 344 343 342 340 339 337 335 333 331 330 328 327 326 326 325 325 324 322 320 319 319 318 315 314 314 314 310 310 311 310 307 306 306 305 303 302 301 302 300 298 298 299
3 353 350 346 343 340 334 329 330 332 332 332 332 337 348 355 355 350 347 350 353 355 356 356 356 356 355 355 355 356 358 360 1 1 0 359 357 356 355 353 352 350 349 348 347 347 345 344 343 342 340 338 336 335 334 333 332 331 329 328 328 328 328 327 325 323 323 323 321 319 318 316 312 311 312 311 309 309 308 306 303 302 303 303 302 302 304 304
7 3 358 350 346 338 334 336 340 341 341 344 350 359 6 2 355 353 356 1 2 2 2 1 0 360 360 1 2 4 5 5 4 3 2 0 359 357 356 354 353 351 350 349 348 347 346 345 344 342 341 339 338 337 336 335 334 333 331 330 331 331 331 331 330 328 328 328 326 323 322 319 316 316 316 313 312 312 309 305 304 305 308 308 308 309 308 303
12 5 355 349 344 339 343 349 348 349 357 3 7 13 12 3 359 3 7 8 8 7 6 5 5 5 6 7 8 8 8 6 5 3 1 360 359 357 355 354 353 351 350 349 348 347 345 345 344 342 341 340 339 337 336 335 335 334 333 332 332 332 332 333 332 330 329 330 329 328 327 323 318 318 318 315 313 313 310 308 309 312 314 313 312 310 304 299
10 0 352 348 347 350 358 358 354 6 15 15 18 20 14 8 10 13 13 14 13 12 11 11 11 11 11 11 10 9 7 5 3 2 360 359 357 357 355 354 352 351 350 349 348 347 345 344 343 342 341 340 339 338 336 335 335 335 334 333 334 334 333 332 332 331 330 331 332 332 329 324 319 318 318 317 316 316 314 314 316 318 317 315 312 308 303 299
4 357 352 354 359 8 12 6 10 24 25 23 27 25 18 17 19 19 19 19 19 17 16 16 15 14 12 11 9 7 5 3 1 360 359 357 356 355 354 353 352 351 349 348 347 347 346 344 343 342 341 340 340 339 338 336 335 335 335 334 335 335 334 333 332 333 334 334 336 335 331 327 322 320 321 321 320 319 317 318 320 321 319 316 312 307 302 301
1 358 360 7 16 23 23 22 30 37 33 31 31 27 25 25 25 25 25 25 23 21 20 18 16 14 12 9 6 4 3 1 360 358 357 356 355 354 353 352 351 350 349 348 347 346 346 345 343 343 342 341 341 340 339 338 337 336 337 336 336 335 336 334 333 334 336 336 337 337 334 329 324 323 324 323 322 320 319 321 323 322 321 318 312 307 305 305
3 6 14 23 30 34 36 38 44 44 38 35 33 31 32 32 32 32 30 27 25 22 20 18 14 12 9 6 4 2 1 359 358 357 355 355 354 353 352 351 350 349 348 347 347 346 346 346 345 344 343 342 342 341 340 340 340 338 337 338 337 336 336 336 334 334 336 337 337 338 338 332 326 325 325 323 323 321 321 325 325 324 323 318 311 309 310 311
12 19 28 35 41 44 44 44 45 43 38 37 38 38 39 38 36 34 30 26 24 21 18 16 12 10 8 5 3 1 359 358 356 355 354 353 353 352 351 350 349 349 348 347 347 347 346 347 346 345 344 343 342 342 342 341 341 339 338 338 338 337 337 337 336 335 336 337 338 339 341 336 328 325 325 324 325 325 324 326 327 326 324 318 313 313 314 315
24 33 39 45 52 52 45 44 46 44 42 43 44 44 43 40 36 33 29 25 22 19 17 14 11 8 6 3 1 359 358 357 355 354 353 352 352 351 350 350 349 349 348 348 347 347 347 347 346 346 345 344 343 343 343 342 341 340 338 338 339 338 338 338 338 338 338 337 338 339 341 338 330 327 327 327 327 326 326 327 329 329 324 319 318 318 317 317
37 45 51 58 62 55 48 50 52 49 49 50 48 45 42 39 34 30 26 23 20 17 15 12 9 6 4 2 0 359 357 356 355 354 353 352 351 351 350 350 349 349 349 348 348 347 347 347 347 346 346 345 345 344 344 342 340 340 340 340 340 339 340 339 339 340 341 338 336 338 341 339 332 328 327 327 326 327 328 331 333 331 324 321 321 320 319 319
49 57 63 67 64 57 55 57 56 54 53 50 47 44 40 36 32 27 24 21 18 16 13 10 7 5 3 1 0 359 358 356 354 353 353 352 351 351 350 350 350 349 349 349 348 347 347 347 347 347 346 346 345 345 344 343 341 341 342 342 342 341 341 340 339 340 342 339 336 338 342 340 333 328 326 326 327 329 331 334 335 330 324 323 323 322 321 320
60 67 70 67 63 61 61 60 57 54 51 47 45 42 37 33 29 24 22 19 16 13 11 8 6 4 3 2 1 359 358 356 355 354 353 352 351 351 351 351 350 350 350 349 349 348 348 347 347 347 347 346 346 346 346 345 343 343 343 343 343 342 341 341 339 340 343 341 337 337 341 340 334 329 327 327 329 331 334 337 335 329 325 325 324 323 322 321
69 73 71 68 66 66 63 58 54 51 47 45 42 38 33 29 25 22 19 16 13 11 9 6 5 5 4 3 1 359 358 356 355 354 354 353 352 352 352 351 351 351 350 350 350 349 349 348 347 347 347 347 347 348 347 347 346 345 344 344 343 343 343 340 339 341 344 344 339 336 337 339 336 332 330 329 331 334 336 338 334 328 326 326 324 324 323 322
76 76 73 72 70 66 59 54 51 48 46 43 38 33 30 25 22 20 17 14 11 9 7 7 6 6 5 3 1 359 358 357 356 355 354 354 354 353 353 352 352 352 351 351 350 350 350 350 349 348 348 348 348 348 348 347 346 346 345 344 344 344 343 340 338 341 344 344 342 338 337 339 340 337 333 331 332 334 337 338 333 329 327 327 326 326 325 324
80 78 77 75 69 61 55 51 48 46 43 40 34 30 26 23 21 18 14 11 9 8 8 8 8 7 5 3 1 360 358 358 357 356 356 355 355 354 354 353 353 352 352 351 351 351 351 351 350 349 348 348 348 349 349 347 346 346 345 345 345 344 343 340 339 342 344 343 343 342 340 340 342 341 336 332 331 334 338 338 334 331 330 329 329 328 327 327
83 81 78 73 64 55 50 47 46 44 40 36 31 27 24 22 18 15 12 11 10 10 11 10 8 6 4 2 1 0 359 358 358 357 357 356 356 355 355 354 354 353 353 352 351 352 351 351 351 350 349 349 349 349 349 348 347 347 346 346 345 343 343 342 341 343 344 343 343 345 344 343 343 343 338 332 331 335 340 340 337 335 332 331 332 331 329 329
85 83 77 67 58 50 45 44 45 43 38 32 29 25 23 20 16 14 13 13 13 13 12 10 8 6 4 3 2 0 360 359 359 359 358 358 357 356 356 355 355 354 353 353 352 352 352 351 352 352 351 350 349 349 349 349 348 348 347 346 344 344 345 344 343 344 345 345 345 346 348 346 343 342 340 334 333 337 342 342 340 338 335 333 333 332 330 329
86 84 74 63 53 45 43 45 45 41 35 30 27 24 21 19 17 16 16 16 15 14 12 10 7 5 4 3 2 1 1 1 0 360 359 359 358 357 356 356 355 354 353 353 352 352 352 352 352 353 351 350 350 350 350 350 349 348 347 345 345 347 347 344 343 345 347 348 347 347 348 346 343 343 343 338 335 338 342 342 340 340 338 335 334 332 330 329
85 78 68 57 46 43 46 47 44 39 33 29 26 23 20 20 19 18 17 16 14 13 11 9 7 5 5 3 3 3 3 2 1 0 360 359 358 357 357 356 355 355 354 353 352 352 352 352 352 352 352 351 351 351 351 351 349 347 347 347 347 348 348 346 345 347 349 349 349 349 348 345 343 345 346 341 336 338 343 343 341 342 340 338 336 334 332 332
81 70 58 48 42 45 49 48 42 37 32 28 25 23 22 21 20 18 17 15 13 12 10 8 7 6 5 4 4 4 4 3 2 1 0 360 358 357 357 356 355 354 354 353 353 353 353 353 352 352 352 352 352 352 352 351 349 348 348 348 348 349 350 349 347 348 349 349 349 349 347 345 345 347 349 345 339 338 343 344 342 342 342 341 339 337 334 334
Height
10712 10714 10717 10720 10722 10724 10726 10728 10729 10730 10731 10731 10732 10732 10732 10731 10730 10730 10730 10729 10729 10728 10727 10727 10726 10724 10723 10721 10719 10717 10715 10714 10712 10710 10708 10706 10703 10700 10698 10695 10693 10691 10688 10685 10683 10680 10677 10674 10671 10668 10664 10661 10659 10656 10653 10650 10648 10645 10642 10639 10637 10634 10631 10629 10626 10623 10620 10618 10617 10616 10615 10613 10610 10605 10601 10602 10601 10596 10595 10595 10593 10591 10588 10584 10582 10579 10577 10575
10711 10714 10717 10719 10721 10724 10725 10727 10728 10729 10729 10730 10730 10730 10729 10728 10728 10728 10728 10727 10727 10726 10725 10724 10723 10721 10720 10718 10716 10714 10712 10710 10708 10706 10704 10701 10699 10696 10693 10690 10687 10685 10682 10679 10676 10673 10671 10668 10665 10661 10658 10655 10651 10648 10645 10642 10640 10637 10633 10630 10628 10626 10622 10619 10617 10614 10612 10609 10608 10607 10606 10604 10599 10595 10592 10592 10592 10587 10585 10585 10583 10581 10579 10576 10573 10570 10568 10565
10711 10714 10716 10719 10721 10723 10725 10726 10726 10727 10727 10727 10727 10727 10726 10726 10726 10726 10726 10725 10725 10724 10722 10721 10719 10718 10716 10714 10712 10710 10708 10706 10704 10702 10699 10697 10694 10691 10688 10685 10682 10679 10676 10673 10670 10667 10664 10661 10657 10655 10651 10648 10644 10641 10638 10634 10631 10628 10625 10622 10620 10617 10613 10611 10609 10607 10604 10602 10600 10599 10599 10597 10592 10587 10585 10584 10584 10580 10577 10576 10574 10573 10571 10568 10565 10563 10560 10558
10710 10713 10716 10718 10720 10722 10723 10724 10724 10724 10725 10725 10725 10724 10724 10725 10725 10725 10724 10723 10722 10720 10718 10717 10715 10714 10712 10710 10708 10706 10704 10702 10700 10697 10694 10692 10689 10686 10683 10680 10677 10674 10670 10667 10664 10661 10657 10653 10650 10647 10643 10640 10636 10633 10630 10627 10624 10620 10617 10615 10613 10610 10607 10605 10603 10601 10599 10596 10595 10593 10593 10591 10586 10583 10580 10577 10577 10574 10570 10567 10565 10564 10563 10561 10558 10556 10554 10551
10710 10712 10715 10717 10718 10720 10721 10721 10722 10722 10722 10722 10722 10722 10723 10723 10723 10722 10721 10720 10718 10716 10714 10713 10712 10710 10709 10707 10704 10702 10700 10697 10695 10692 10689 10687 10684 10681 10678 10674 10671 10668 10664 10661 10658 10654 10651 10647 10643 10639 10635 10632 10629 10626 10624 10621 10618 10616 10612 10610 10608 10606 10603 10601 10599 10596 10594 10591 10589 10588 10587 10585 10581 10578 10575 10571 10569 10566 10563 10560 10557 10555 10553 10552 10550 10548 10546 10544
10709 10711 10713 10715 10716 10717 10718 10718 10719 10719 10720 10720 10720 10721 10721 10721 10720 10719 10718 10716 10715 10713 10711 10709 10708 10707 10705 10703 10700 10698 10695 10692 10690 10687 10684 10681 10678 10675 10672 10669 10665 10662 10659 10655 10652 10648 10644 10640 10636 10633 10629 10627 10624 10622 10619 10617 10614 10612 10609 10606 10604 10601 10599 10597 10594 10591 10589 10586 10584 10582 10580 10578 10576 10573 10569 10565 10561 10558 10555 10552 10549 10546 10544 10541 10540 10538 10536 10534
10707 10709 10711 10713 10714 10714 10715 10716 10717 10717 10718 10718 10719 10719 10718 10718 10717 10716 10714 10713 10711 10709 10708 10706 10705 10703 10701 10698 10696 10693 10691 10688 10685 10682 10679 10676 10673 10669 10666 10663 10660 10656 10653 10649 10646 10642 10638 10635 10631 10628 10626 10623 10620 10618 10616 10613 10610 10608 10605 10602 10599 10596 10594 10592 10589 10586 10583 10581 10578 10576 10574 10571 10569 10566 10562 10558 10554 10550 10547 10544 10541 10537 10534 10532 10529 10527 10525 10523
10706 10708 10709 10710 10711 10712 10713 10714 10715 10716 10716 10716 10716 10716 10716 10715 10714 10713 10711 10710 10708 10706 10705 10703 10701 10699 10696 10694 10691 10689 10686 10683 10680 10677 10674 10671 10667 10664 10661 10657 10654 10651 10647 10644 10640 10637 10634 10630 10627 10625 10622 10619 10617 10614 10611 10609 10606 10603 10601 10597 10594 10591 10588 10586 10584 10581 10578 10575 10572 10569 10567 10563 10560 10557 10553 10550 10546 10543 10539 10535 10532 10528 10525 10522 10519 10517 10515 10512
10705 10706 10708 10708 10709 10710 10711 10712 10713 10714 10714 10714 10714 10713 10713 10712 10711 10710 10708 10707 10705 10704 10702 10699 10697 10694 10692 10689 10686 10684 10681 10678 10675 10672 10669 10666 10662 10659 10656 10652 10649 10646 10642 10639 10636 10633 10630 10627 10624 10621 10619 10616 10613 10610 10607 10604 10601 10599 10596 10593 10589 10586 10583 10580 10577 10575 10571 10568 10564 10561 10559 10556 10551 10546 10544 10540 10537 10534 10530 10526 10523 10519 10516 10513 10509 10507 10505 10502
10703 10705 10706 10707 10708 10709 10710 10711 10712 10712 10712 10712 10711 10711 10710 10709 10708 10707 10705 10704 10702 10700 10698 10695 10692 10690 10687 10684 10682 10679 10676 10673 10670 10667 10664 10661 10658 10654 10651 10647 10644 10641 10638 10635 10633 10630 10627 10624 10621 10618 10615 10612 10609 10606 10603 10600 10597 10594 10591 10587 10584 10580 10576 10573 10570 10567 10564 10560 10557 10553 10550 10548 10542 10537 10534 10530 10526 10523 10519 10516 10513 10510 10506 10503 10500 10497 10494 10491
10702 10704 10705 10706 10707 10708 10709 10710 10710 10710 10710 10709 10709 10708 10707 10706 10705 10704 10702 10700 10698 10696 10694 10691 10688 10685 10683 10680 10678 10675 10672 10669 10666 10663 10660 10656 10653 10650 10646 10643 10640 10638 10635 10633 10630 10627 10624 10621 10617 10614 10611 10608 10605 10601 10597 10594 10591 10588 10585 10582 10578 10574 10570 10565 10561 10558 10555 10552 10548 10544 10542 10539 10531 10526 10524 10520 10515 10511 10508 10505 10501 10499 10496 10493 10490 10486 10483 10480
10701 10703 10704 10705 10706 10707 10707 10708 10708 10708 10707 10707 10706 10706 10705 10703 10702 10700 10698 10696 10694 10692 10690 10687 10684 10682 10679 10676 10673 10671 10668 10665 10662 10658 10655 10652 10649 10646 10643 10641 10638 10636 10633 10630 10627 10624 10620 10617 10613 10610 10606 10603 10599 10595 10591 10588 10585 10581 10578 10575 10571 10567 10562 10558 10553 10548 10545 10541 10538 10534 10534 10532 10522 10515 10512 10507 10504 10499 10496 10493 10489 10487 10484 10481 10478 10475 10472 10469
10700 10701 10702 10704 10704 10705 10705 10706 10706 10705 10705 10705 10704 10703 10702 10700 10698 10696 10694 10692 10690 10688 10686 10683 10680 10678 10675 10672 10669 10667 10664 10661 10658 10655 10652 10649 10647 10644 10641 10639 10636 10633 10630 10627 10623 10620 10616 10612 10608 10605 10601 10598 10594 10590 10586 10582 10578 10574 10569 10566 10564 10560 10555 10551 10546 10540 10536 10532 10528 10523 10522 10522 10515 10507 10501 10495 10491 10487 10483 10479 10476 10473 10470 10467 10464 10462 10459 10456
10699 10700 10701 10702 10703 10703 10703 10704 10704 10703 10703 10702 10701 10700 10698 10696 10695 10693 10691 10689 10686 10684 10682 10679 10677 10674 10671 10668 10665 10663 10660 10657 10655 10652 10649 10647 10644 10642 10639 10636 10633 10630 10626 10623 10619 10615 10611 10607 10603 10599 10595 10592 10588 10583 10580 10576 10571 10566 10561 10557 10553 10551 10547 10542 10538 10533 10527 10521 10517 10513 10510 10510 10505 10497 10491 10485 10478 10474 10470 10466 10463 10459 10456 10453 10449 10446 10443 10440
10698 10698 10699 10700 10700 10701 10701 10702 10702 10701 10700 10699 10698 10696 10695 10693 10691 10689 10687 10685 10683 10680 10678 10676 10673 10670 10667 10665 10662 10660 10657 10655 10652 10650 10647 10645 10642 10639 10636 10633 10629 10625 10622 10618 10614 10610 10606 10602 10598 10594 10590 10586 10582 10577 10572 10568 10564 10558 10553 10548 10543 10539 10535 10531 10527 10523 10518 10512 10506 10500 10496 10494 10491 10484 10478 10472 10466 10461 10457 10453 10450 10446 10442 10438 10434 10430 10428 10425
10696 10696 10697 10698 10698 10699 10699 10699 10699 10698 10697 10696 10694 10693 10691 10689 10688 10686 10684 10681 10679 10677 10675 10672 10669 10667 10665 10662 10660 10658 10655 10653 10650 10648 10645 10642 10639 10635 10632 10628 10625 10621 10617 10613 10609 10606 10602 10597 10593 10589 10585 10581 10576 10571 10566 10561 10556 10551 10546 10540 10535 10530 10526 10521 10516 10511 10508 10503 10497 10490 10483 10478 10475 10470 10463 10457 10453 10449 10445 10440 10436 10432 10427 10423 10418 10415 10413 10409
10694 10694 10695 10696 10697 10697 10697 10696 10696 10695 10694 10692 10691 10689 10688 10686 10684 10682 10680 10678 10676 10673 10671 10669 10667 10665 10663 10660 10658 10656 10654 10651 10648 10645 10642 10639 10635 10632 10628 10624 10620 10616 10612 10608 10604 10600 10596 10592 10588 10583 10579 10574 10569 10564 10559 10554 10549 10543 10538 10533 10527 10521 10518 10513 10508 10502 10498 10493 10488 10482 10474 10467 10460 10454 10449 10443 10438 10435 10431 10427 10422 10417 10412 10408 10404 10400 10396 10392
10692 10693 10694 10694 10694 10694 10694 10693 10692 10692 10690 10689 10688 10686 10685 10683 10681 10679 10677 10675 10673 10671 10669 10667 10665 10663 10661 10659 10656 10654 10651 10648 10645 10642 10638 10635 10631 10628 10624 10620 10615 10611 10607 10603 10599 10595 10591 10587 10582 10578 10573 10568 10563 10557 10552 10547 10542 10537 10532 10527 10521 10514 10509 10505 10500 10495 10491 10484 10479 10473 10466 10458 10451 10443 10436 10430 10425 10421 10416 10412 10407 10402 10398 10393 10389 10384 10378 10373
10691 10691 10692 10692 10692 10692 10691 10690 10690 10689 10688 10686 10685 10684 10682 10680 10678 10676 10675 10673 10671 10670 10668 10666 10664 10662 10659 10657 10654 10651 10648 10644 10641 10638 10634 10631 10627 10624 10620 10615 10611 10607 10602 10598 10594 10590 10586 10581 10577 10573 10568 10563 10558 10552 10546 10541 10536 10531 10526 10521 10516 10509 10502 10496 10492 10487 10484 10478 10470 10465 10457 10448 10441 10434 10427 10420 10414 10409 10404 10400 10394 10388 10385 10379 10373 10367 10361 10356
10689 10690 10690 10690 10690 10689 10689 10688 10687 10686 10685 10684 10682 10681 10679 10678 10676 10675 10673 10672 10670 10668 10667 10665 10662 10660 10657 10654 10651 10648 10644 10641 10637 10634 10630 10627 10623 10619 10615 10610 10606 10602 10598 10594 10589 10585 10581 10576 10572 10567 10562 10557 10552 10546 10541 10535 10530 10525 10519 10514 10508 10503 10496 10489 10484 10478 10475 10470 10462 10457 10450 10439 10430 10422 10415 10409 10401 10395 10392 10386 10381 10375 10371 10364 10358 10352 10346 10340
10688 10688 10688 10688 10687 10687 10686 10686 10685 10684 10683 10682 10680 10679 10678 10677 10676 10674 10673 10671 10669 10667 10665 10663 10660 10657 10654 10651 10647 10644 10641 10637 10634 10630 10626 10623 10619 10615 10610 10606 10602 10598 10594 10589 10585 10580 10576 10571 10566 10562 10556 10551 10545 10540 10534 10528 10523 10518 10513 10507 10501 10496 10489 10482 10475 10468 10463 10459 10451 10447 10441 10431 10421 10411 10403 10396 10387 10383 10379 10372 10367 10362 10355 10349 10343 10337 10331 10325
10686 10686 10686 10686 10686 10685 10685 10684 10683 10682 10681 10680 10679 10679 10677 10676 10675 10673 10671 10670 10668 10666 10663 10660 10657 10654 10651 10647 10644 10641 10637 10634 10631 10627 10623 10619 10615 10611 10606 10602 10598 10594 10589 10585 10580 10575 10570 10565 10560 10555 10549 10544 10538 10533 10527 10522 10517 10511 10506 10501 10493 10487 10482 10475 10468 10459 10452 10447 10441 10438 10433 10422 10413 10404 10393 10383 10375 10370 10365 10358 10353 10347 10339 10333 10327 10321 10316 10310
10685 10685 10685 10685 10684 10684 10683 10683 10682 10681 10681 10680 10679 10678 10677 10675 10674 10672 10670 10668 10666 10664 10661 10658 10654 10651 10647 10644 10641 10638 10635 10631 10628 10624 10620 10616 10611 10607 10603 10598 10594 10589 10584 10579 10574 10569 10564 10559 10554 10549 10543 10538 10533 10527 10522 10517 10511 10505 10498 10493 10486 10478 10472 10467 10461 10452 10442 10435 10428 10425 10423 10413 10402 10395 10384 10372 10365 10360 10352 10346 10341 10334 10326 10319 10312 10307 10301 10294
10684 10684 10684 10684 10684 10683 10683 10683 10682 10681 10681 10680 10679 10677 10676 10674 10673 10671 10669 10666 10664 10661 10657 10654 10651 10647 10644 10642 10639 10635 10632 10628 10624 10620 10616 10612 10607 10603 10598 10594 10589 10584 10579 10574 10569 10564 10559 10555 10550 10545 10539 10534 10528 10522 10517 10511 10505 10500 10492 10485 10479 10471 10462 10454 10449 10443 10434 10425 10416 10409 10409 10405 10392 10383 10376 10365 10355 10348 10341 10335 10330 10322 10315 10306 10299 10293 10285 10278
10683 10684 10684 10684 10683 10683 10683 10682 10682 10681 10680 10679 10678 10676 10675 10673 10671 10669 10667 10664 10660 10657 10654 10651 10648 10645 10642 10639 10636 10632 10628 10625 10621 10616 10612 10607 10602 10598 10594 10589 10585 10580 10575 10571 10566 10561 10556 10552 10547 10541 10536 10530 10524 10519 10512 10506 10499 10493 10486 10477 10469 10462 10454 10445 10438 10432 10425 10416 10405 10396 10392 10393 10386 10371 10363 10356 10344 10336 10330 10323 10317 10309 10302 10295 10286 10278 10270 10261
10684 10684 10684 10684 10683 10683 10683 10682 10681 10680 10679 10678 10677 10675 10673 10671 10669 10667 10664 10660 10657 10654 10651 10648 10646 10643 10639 10636 10633 10629 10626 10622 10618 10613 10609 10604 10600 10596 10591 10586 10582 10578 10573 10568 10563 10558 10552 10547 10542 10537 10532 10525 10519 10513 10506 10500 10492 10485 10477 10470 10461 10453 10446 10438 10430 10423 10417 10406 10395 10386 10378 10378 10375 10357 10347 10343 10331 10323 10319 10310 10304 10296 10287 10280 10271 10262 10254 10246
10684 10684 10684 10684 10684 10683 10683 10682 10681 10680 10679 10677 10676 10674 10672 10669 10667 10664 10661 10657 10654 10652 10649 10647 10644 10640 10637 10634 10630 10627 10623 10619 10615 10611 10607 10603 10599 10594 10589 10585 10580 10576 10571 10565 10559 10554 10548 10542 10536 10530 10525 10519 10513 10506 10499 10492 10485 10478 10471 10463 10455 10447 10439 10431 10424 10414 10407 10397 10382 10371 10363 10364 10367 10347 10330 10329 10318 10308 10306 10296 10289 10282 10272 10264 10255 10247 10239 10231
10684 10685 10685 10684 10684 10683 10682 10681 10680 10679 10677 10676 10674 10672 10669 10667 10664 10661 10658 10655 10653 10650 10648 10644 10641 10638 10635 10631 10627 10624 10620 10617 10613 10609 10605 10601 10598 10594 10588 10583 10577 10571 10566 10561 10555 10549 10543 10536 10529 10523 10517 10511 10506 10500 10493 10486 10480 10473 10466 10458 10449 10441 10432 10422 10416 10406 10398 10388 10372 10358 10347 10345 10354 10340 10316 10312 10306 10295 10291 10283 10275 10267 10258 10249 10240 10232 10224 10215
10685 10685 10685 10685 10684 10683 10682 10680 10679 10678 10676 10674 10672 10669 10666 10664 10661 10658 10656 10654 10651 10649 10645 10642 10639 10636 10633 10629 10626 10623 10620 10616 10613 10608 10604 10599 10595 10591 10586 10581 10574 10568 10562 10556 10550 10543 10537 10531 10524 10518 10512 10506 10500 10494 10487 10480 10473 10466 10459 10452 10442 10433 10425 10415 10409 10401 10392 10383 10367 10353 10341 10329 10333 10331 10310 10297 10291 10280 10274 10268 10259 10250 10241 10232 10224 10215 10206 10199
10686 10686 10685 10684 10683 10682 10681 10680 10678 10676 10674 10672 10669 10667 10664 10662 10659 10657 10655 10652 10650 10647 10644 10641 10638 10635 10632 10629 10626 10623 10619 10615 10612 10608 10603 10598 10593 10587 10581 10576 10570 10564 10557 10551 10545 10538 10531 10525 10518 10512 10506 10500 10493 10485 10478 10470 10463 10456 10450 10445 10437 10428 10419 10408 10401 10394 10386 10379 10362 10346 10339 10323 10312 10313 10307 10293 10279 10266 10257 10248 10240 10232 10223 10215 10208 10198 10188 10184
10686 10685 10685 10684 10682 10681 10680 10678 10676 10674 10672 10669 10667 10665 10662 10660 10658 10656 10653 10651 10648 10646 10643 10640 10638 10635 10632 10628 10625 10621 10617 10613 10609 10604 10598 10592 10586 10580 10574 10568 10562 10556 10550 10544 10538 10532 10526 10520 10513 10506 10499 10492 10485 10477 10470 10463 10455 10449 10442 10437 10432 10424 10415 10403 10392 10384 10377 10370 10356 10340 10334 10323 10303 10293 10292 10286 10272 10259 10249 10237 10228 10219 10210 10204 10195 10182 10175 10171
10686 10685 10684 10683 10681 10680 10678 10676 10674 10672 10670 10668 10665 10663 10661 10659 10656 10654 10652 10650 10647 10645 10642 10640 10637 10634 10630 10627 10623 10620 10616 10611 10606 10600 10595 10588 10582 10576 10571 10565 10558 10553 10546 10540 10534 10528 10521 10515 10508 10501 10493 10486 10480 10473 10466 10459 10450 10443 10435 10427 10421 10416 10411 10400 10387 10379 10371 10362 10347 10328 10319 10313 10299 10286 10279 10273 10264 10254 10243 10230 10218 10208 10201 10195 10183 10171 10166 10159
10685 10684 10683 10681 10680 10678 10677 10675 10672 10670 10668 10666 10664 10661 10659 10657 10655 10654 10652 10649 10647 10644 10641 10638 10635 10633 10629 10626 10622 10618 10614 10609 10604 10598 10593 10588 10582 10577 10570 10564 10558 10551 10545 10537 10531 10524 10517 10511 10504 10497 10491 10483 10475 10468 10460 10452 10442 10432 10423 10415 10406 10398 10393 10386 10374 10364 10359 10353 10339 10320 10305 10291 10280 10276 10269 10256 10246 10241 10232 10217 10205 10199 10193 10184 10171 10160 10154 10144
10684 10682 10681 10680 10678 10677 10675 10672 10670 10668 10666 10664 10662 10660 10658 10656 10655 10654 10651 10649 10646 10644 10641 10638 10635 10632 10629 10625 10621 10616 10611 10606 10601 10596 10591 10586 10580 10574 10567 10561 10554 10547 10541 10533 10526 10519 10512 10505 10498 10491 10484 10476 10468 10459 10450 10441 10432 10423 10412 10401 10391 10380 10371 10365 10354 10341 10335 10335 10328 10314 10299 10273 10252 10252 10252 10239 10229 10225 10216 10203 10192 10187 10181 10169 10158 10149 10139 10127
10682 10681 10680 10679 10677 10675 10672 10670 10668 10667 10665 10663 10661 10659 10658 10657 10655 10654 10651 10649 10646 10643 10641 10638 10635 10631 10627 10623 10618 10614 10609 10604 10599 10594 10588 10583 10577 10571 10564 10558 10551 10543 10537 10530 10522 10514 10505 10498 10492 10485 10477 10469 10460 10450 10440 10431 10422 10412 10401 10390 10381 10369 10358 10351 10344 10330 10318 10317 10313 10302 10291 10266 10238 10233 10233 10223 10217 10209 10196 10185 10178 10173 10165 10154 10146 10137 10125 10114
10681 10680 10679 10677 10675 10673 10671 10669 10668 10666 10664 10663 10661 10659 10658 10657 10656 10653 10651 10649 10646 10644 10641 10637 10634 10630 10625 10620 10615 10611 10607 10602 10597 10591 10586 10580 10574 10568 10562 10555 10548 10540 10533 10526 10519 10512 10502 10493 10485 10478 10470 10461 10453 10443 10433 10422 10412 10402 10392 10380 10371 10360 10347 10339 10336 10329 10316 10307 10300 10289 10278 10260 10234 10224 10219 10206 10198 10190 10176 10168 10165 10159 10151 10141 10133 10122 10108 10098
10681 10680 10678 10676 10674 10672 10670 10669 10667 10665 10664 10663 10661 10660 10659 10657 10655 10653 10651 10648 10646 10643 10640 10636 10632 10627 10622 10618 10613 10609 10604 10599 10594 10588 10583 10577 10571 10565 10558 10551 10544 10537 10529 10522 10515 10508 10500 10490 10480 10472 10465 10456 10448 10438 10428 10416 10405 10396 10385 10372 10360 10352 10342 10328 10318 10314 10307 10297 10291 10278 10261 10240 10216 10208 10205 10192 10181 10170 10161 10158 10154 10146 10137 10126 10117 10106 10094 10084
10681 10679 10677 10674 10673 10671 10670 10668 10666 10665 10665 10663 10661 10660 10659 10657 10655 10653 10650 10648 10645 10642 10638 10634 10630 10625 10621 10616 10611 10606 10601 10596 10591 10585 10579 10573 10567 10561 10554 10547 10540 10532 10524 10517 10510 10503 10496 10488 10477 10467 10459 10450 10441 10431 10422 10412 10400 10388 10378 10367 10353 10341 10333 10320 10302 10292 10287 10281 10277 10271 10255 10226 10200 10192 10189 10180 10172 10159 10150 10150 10143 10134 10124 10111 10098 10090 10082 10075
10680 10678 10675 10674 10672 10671 10670 10669 10667 10666 10665 10663 10662 10661 10659 10657 10655 10652 10650 10647 10644 10641 10637 10633 10629 10624 10620 10615 10610 10605 10599 10594 10588 10582 10577 10570 10564 10557 10550 10543 10536 10529 10521 10512 10505 10498 10490 10483 10473 10462 10452 10443 10435 10425 10413 10402 10391 10379 10368 10359 10349 10334 10322 10313 10298 10284 10276 10270 10263 10260 10251 10221 10189 10180 10176 10169 10163 10150 10140 10140 10133 10122 10114 10098 10083 10075 10071 10066
10678 10676 10675 10673 10672 10671 10671 10669 10667 10666 10665 10664 10663 10661 10659 10657 10655 10652 10650 10647 10643 10640 10636 10632 10628 10624 10619 10614 10609 10604 10598 10592 10586 10580 10574 10567 10561 10554 10547 10540 10532 10524 10516 10507 10499 10492 10484 10477 10469 10459 10447 10436 10426 10416 10405 10392 10381 10371 10359 10348 10340 10329 10317 10306 10294 10279 10264 10255 10246 10241 10239 10217 10183 10169 10165 10156 10150 10140 10130 10128 10123 10112 10101 10088 10074 10064 10059 10055
10677 10676 10675 10673 10672 10672 10672 10669 10667 10667 10667 10665 10663 10661 10659 10657 10655 10652 10649 10645 10642 10639 10635 10631 10627 10623 10619 10613 10608 10603 10597 10591 10585 10578 10572 10564 10558 10551 10543 10535 10528 10520 10512 10503 10495 10486 10478 10470 10462 10454 10445 10434 10422 10411 10399 10387 10376 10366 10354 10343 10332 10321 10309 10297 10288 10279 10262 10247 10236 10228 10225 10210 10178 10155 10148 10142 10136 10130 10122 10118 10112 10101 10087 10076 10067 10057 10049 10045
10678 10676 10675 10674 10674 10674 10672 10669 10669 10669 10667 10665 10663 10661 10659 10657 10654 10651 10648 10645 10642 10638 10634 10631 10627 10622 10617 10612 10607 10602 10595 10589 10583 10576 10569 10561 10554 10547 10539 10532 10523 10515 10507 10498 10490 10481 10473 10465 10456 10448 10438 10427 10417 10406 10395 10383 10373 10364 10353 10340 10327 10313 10300 10285 10271 10266 10258 10243 10233 10228 10222 10207 10177 10150 10139 10135 10130 10122 10113 10107 10100 10090 10076 10066 10060 10051 10042 10037
10678 10677 10676 10675 10675 10674 10672 10671 10670 10669 10667 10666 10664 10661 10659 10657 10654 10651 10648 10645 10641 10638 10634 10630 10626 10621 10616 10611 10606 10600 10594 10588 10581 10574 10567 10559 10552 10544 10536 10528 10520 10511 10502 10494 10485 10475 10467 10459 10452 10445 10435 10424 10415 10406 10396 10383 10367 10355 10343 10331 10318 10303 10292 10280 10263 10253 10248 10232 10216 10213 10214 10202 10178 10153 10137 10129 10123 10115 10106 10099 10090 10079 10067 10057 10051 10044 10037 10030
10679 10678 10677 10677 10675 10674 10673 10672 10671 10670 10668 10666 10664 10662 10659 10657 10654 10651 10648 10645 10641 10637 10634 10629 10625 10620 10615 10609 10604 10598 10593 10586 10579 10572 10565 10557 10550 10541 10533 10524 10515 10507 10498 10489 10480 10470 10460 10450 10441 10434 10428 10419 10410 10400 10389 10376 10359 10342 10328 10317 10309 10297 10284 10274 10262 10252 10245 10229 10203 10192 10200 10199 10177 10150 10130 10117 10112 10107 10100 10094 10083 10069 10059 10052 10044 10037 10031 10025
10680 10679 10678 10677 10676 10675 10675 10674 10672 10670 10668 10666 10664 10662 10660 10657 10654 10651 10648 10645 10641 10637 10633 10628 10623 10618 10613 10608 10602 10596 10590 10584 10577 10570 10562 10555 10547 10538 10529 10520 10511 10502 10493 10484 10474 10464 10454 10442 10429 10419 10410 10400 10389 10378 10367 10357 10345 10334 10321 10309 10300 10290 10277 10263 10254 10247 10240 10230 10207 10182 10179 10186 10175 10149 10125 10110 10103 10099 10094 10088 10076 10061 10052 10045 10038 10031 10025 10019
10680 10679 10679 10678 10677 10677 10676 10674 10672 10671 10669 10667 10665 10662 10660 10657 10654 10651 10648 10644 10640 10636 10632 10627 10622 10617 10611 10606 10601 10595 10588 10582 10575 10567 10560 10552 10543 10534 10525 10517 10507 10498 10489 10479 10470 10460 10449 10439 10425 10411 10400 10388 10377 10367 10356 10345 10337 10328 10318 10308 10294 10282 10271 10256 10244 10238 10231 10226 10216 10189 10165 10161 10158 10141 10118 10102 10096 10094 10089 10081 10071 10058 10047 10039 10032 10025 10017 10011
10681 10680 10680 10679 10679 10678 10676 10675 10673 10671 10669 10667 10665 10663 10660 10657 10654 10651 10648 10644 10640 10635 10630 10625 10620 10615 10610 10605 10599 10593 10586 10580 10572 10565 10557 10549 10540 10531 10522 10513 10504 10494 10485 10475 10467 10457 10446 10435 10424 10409 10396 10386 10374 10364 10354 10342 10333 10324 10312 10302 10290 10279 10270 10255 10236 10228 10221 10212 10209 10198 10173 10153 10146 10134 10111 10092 10087 10089 10086 10075 10062 10051 10041 10033 10026 10018 10010 10003
10682 10681 10681 10680 10679 10678 10677 10676 10674 10672 10670 10668 10666 10663 10660 10658 10655 10652 10648 10644 10639 10634 10629 10624 10619 10614 10609 10603 10597 10591 10584 10577 10570 10562 10554 10546 10537 10528 10519 10510 10501 10491 10482 10473 10463 10454 10443 10432 10422 10408 10394 10383 10372 10363 10355 10341 10328 10316 10304 10293 10284 10275 10266 10252 10232 10219 10210 10196 10187 10183 10169 10148 10135 10129 10113 10090 10078 10078 10077 10067 10054 10043 10033 10025 10019 10011 10004 9998
10683 10682 10682 10681 10680 10679 10678 10676 10674 10672 10671 10669 10666 10664 10661 10658 10655 10651 10648 10643 10638 10634 10629 10624 10619 10613 10608 10602 10596 10589 10582 10575 10568 10560 10552 10543 10534 10526 10517 10507 10498 10488 10479 10470 10459 10450 10440 10429 10418 10406 10393 10382 10371 10359 10349 10337 10324 10312 10300 10291 10281 10268 10254 10241 10230 10219 10206 10189 10171 10160 10154 10140 10126 10119 10108 10089 10073 10068 10065 10059 10050 10040 10028 10020 10014 10007 10000 9994
10684 10683 10683 10682 10681 10680 10678 10677 10675 10673 10672 10669 10667 10664 10661 10658 10655 10651 10647 10642 10638 10633 10628 10623 10618 10613 10607 10601 10595 10588 10580 10573 10565 10557 10549 10541 10532 10523 10514 10504 10495 10486 10475 10466 10456 10445 10435 10425 10415 10404 10392 10381 10371 10358 10344 10332 10320 10310 10301 10291 10278 10265 10249 10233 10221 10214 10205 10191 10173 10155 10144 10136 10125 10112 10098 10080 10067 10064 10061 10054 10047 10039 10027 10017 10011 10004 9997 9991
10685 10684 10684 10683 10682 10681 10679 10677 10675 10674 10672 10670 10667 10665 10661 10658 10654 10650 10646 10641 10637 10633 10628 10623 10618 10612 10606 10600 10593 10586 10579 10571 10563 10555 10546 10538 10529 10520 10511 10501 10492 10483 10473 10462 10452 10442 10432 10422 10412 10403 10391 10377 10364 10354 10343 10331 10319 10308 10298 10286 10272 10262 10249 10229 10208 10197 10188 10179 10171 10159 10146 10137 10127 10114 10098 10078 10061 10056 10056 10049 10041 10035 10025 10014 10006 9999 9991 9985
10686 10685 10685 10684 10683 10681 10679 10678 10676 10675 10673 10671 10668 10664 10661 10657 10653 10649 10645 10641 10636 10632 10627 10622 10617 10611 10605 10599 10593 10585 10578 10570 10561 10553 10544 10535 10526 10517 10507 10498 10489 10479 10470 10459 10448 10438 10428 10419 10409 10399 10388 10375 10361 10348 10335 10325 10315 10302 10288 10275 10263 10253 10241 10224 10206 10194 10181 10166 10157 10152 10145 10134 10122 10111 10100 10082 10060 10047 10045 10042 10033 10027 10021 10011 10002 9994 9986 9980